COSMOS 1275 DEB, 42159

Orbit data source: Space-Track

COSMOS 1275 DEB, 42159 is space debris in LEO originally from a launch on Thu, 04 Jun 1981 UTC launched from the Plesetsk Missile And Space Complex (PKMTR). Debris objects in space refer to the collection of defunct objects orbiting the Earth. Examples of debris include non-operational satellites, rocket bodies, and fragments generated from explosions, collisions, or faulty payload assembly.

Loading next visibility...
Identifier
42159, 1981-053RX
Orbit
LEO
Country
Flag of CISCIS
Related business
Manufacturer
Unknown
Mission
Spacecraft
Bus & Motor
Unknown
Mass
Unknown
Launch date (UTC)
1981-06-04 (45 years ago)
Launch vehicle
Unknown
Launch site
Plesetsk Missile And Space Complex (PKMTR)
Object type
Payload
Rocket body
Debris
Shape & HBR
Unknown shape, 0.1 m
Radar Cross Section
Small (<0.1 m²)

Expand to show TLE details & history
Last TLE update: 5 days ago

TLE from 5 days ago
0 COSMOS 1275 DEB
1 42159U 81053RX  25350.38358073  .00001031  00000-0  92253-3 0  9999
2 42159  82.8230 222.2332 0063383 244.3536 115.1068 13.82605194573446
Epoch: 2025-12-16T09:12Z
TLE epoch observation values (Epoch: 2025-12-16T09:12:21.375Z)
Latitude
0.00001°
Longitude
-1.12444°
Altitude
977.533 km
Speed
7.353 km/s
True Right ascension
14h 48m 55s
True Declination
0° 00' 00"
Sunlit
Object was in daylight at epoch
Visualization orbit readout
Latitude
Unknown
Longitude
Unknown
Altitude
Unknown
Speed
Unknown
Apparent Right ascension
Unknown
Apparent Declination
Unknown
Sunlit
N/A
Visualization observer readout
Local Sidereal Time
12:55:54
Azimuth
Unknown
Elevation
Unknown
Doppler factor
Unknown
Orbital elements
Apogee altitude
998.263 km
Perigee altitude
905.344 km
Semi-major axis
7,329.941 km
Eccentricity
0.00634
Inclination
82.823°
RAAN
222.2332°
Arg. of periapsis
244.3536°
True anomaly
115.76227°
Mean anomaly
115.1068°
Eccentric anomaly
115.43476°
Mean motion
3.45854 °/min
Orbital period
104.09 mins
BSTAR
0.00092253
Loading maneuver chart data...
Computing Atmospheric mass density...
Loading historical data...
Loading historical data...
Loading historical data...
Loading historical data...
Loading historical data...
Loading historical data...
Loading historical data...

Documentation

Showing up to 5 results
|